Hourly Data Report for October 01, 2017

All times are specified in Local Standard Time (LST). Add 1 hour to adjust for Daylight Saving Time where and when it is observed.

NORTH COWICHAN
BRITISH COLUMBIA

48°49'27.010" N
123°43'08.009" W
44.80 m
1015630
71927
VOO

Download Data

Hourly Data (October 2017)
Hourly Data Report for October 1, 2017
Temp Definition
°C
Dew Point Temp Definition
°C
Rel Hum Definition
%
Wind Dir Definition
10's deg

Wind Spd Definition
km/h
Visibility Definition
km
Stn Press Definition
kPa
Hmdx Definition


Wind Chill Definition


Weather Definition


TIME
00:00 7.7 7.1 96 0 1   101.33     LegendNANA
01:00 7.0 6.5 97 22 2   101.35     LegendNANA
02:00 6.8 6.3 97 0 1   101.34     LegendNANA
03:00 6.6 6.2 97 1 2   101.36     LegendNANA
04:00 7.0 6.6 97 35 1   101.39     LegendNANA
05:00 6.9 6.5 97 33 1   101.40     LegendNANA
06:00 6.8 6.4 97 0 1   101.42     LegendNANA
07:00 7.3 6.8 97 29 3   101.46     LegendNANA
08:00 7.7 7.1 96 22 3   101.47     LegendNANA
09:00 10.3 8.2 87 10 2   101.48     LegendNANA
10:00 13.2 7.1 66 13 3   101.47     LegendNANA
11:00 14.3 6.4 59 2 4   101.46     LegendNANA
12:00 15.4 4.9 50 4 6   101.47     LegendNANA
13:00 15.5 5.1 50 1 7   101.48     LegendNANA
14:00 16.6 5.3 47 6 4   101.43     LegendNANA
15:00 17.1 5.5 46 2 4   101.42     LegendNANA
16:00 15.6 5.9 52 2 6   101.44     LegendNANA
17:00 15.0 6.1 55   0   101.43     LegendNANA
18:00 11.1 6.9 75 28 2   101.47     LegendNANA
19:00 9.0 6.0 81 0 1   101.50     LegendNANA
20:00 8.2 5.5 83 3 2   101.50     LegendNANA
21:00 6.9 4.9 87 18 2   101.49     LegendNANA
22:00 6.4 4.7 89 28 2   101.47     LegendNANA
23:00 5.3 3.8 90 0 1   101.49     LegendNANA

Notes on Data Quality.

Legend

  • E = Estimated
  • M = Missing
  • NA = Not Available
  • ‡ = Partner data that is not subject to review by the National Climate Archives
Date modified: